Kabul, Afghanistan

10:03 PM +0430 on October 17, 2017 (GMT +0430)
Kabul

Weather History for OAKB - May, 2014

Change the Weather History Date:

Sunday, May 4, 2014

  Actual Average Record
Temperature  
Mean Temperature 60 °F -  
Max Temperature 68 °F 77 °F - ()
Min Temperature 51 °F 49 °F - ()
Degree Days  
Heating Degree Days 6    
Growing Degree Days 10 (Base 50)    
Moisture  
Dew Point 52 °F    
Average Humidity 82    
Maximum Humidity 100    
Minimum Humidity 52    
Precipitation  
Precipitation 0.00 in 0.03 in - ()
Sea Level Pressure  
Sea Level Pressure 30.07 in    
Wind  
Wind Speed 5 mph ()    
Max Wind Speed 23 mph    
Max Gust Speed -    
Visibility 4.8 miles    
Events Rain , Thunderstorm    
T = Trace of Precipitation, MM = Missing Value Source: Averaged Metar Reports

Daily Weather History Graph

Daily Weather History Graph

Search for Another Location

Airport or City:

Trip Planner

Search our weather history database for the weather conditions in past years. The results will help you decide how hot, cold, wet, or windy it might be!

Date:

Astronomy

May. 04, 2014 Rise Set
Actual Time 5:00 AM +0430 6:39 PM +0430
Civil Twilight 4:33 AM +0430 7:07 PM +0430
Nautical Twilight 4:00 AM +0430 7:39 PM +0430
Astronomical Twilight 3:26 AM +0430 8:14 PM +0430
Moon 9:01 AM +0430 (5/4) 11:07 PM +0430 (5/4)
Length of Visible Light 14h 33m
Length of Day
13h 39m
Waxing Crescent, 24% of the Moon is Illuminated
May 4
Waxing Crescent
May 7
First Quarter
May 14
Full
May 21
Last Quarter
May 28
New

Hourly Weather History & Observations

Time (+0430) Temp. Dew Point Humidity Pressure Visibility Wind Dir Wind Speed Gust Speed Precip Events Conditions
12:20 AM 57.2 °F 53.6 °F 88% 30.09 in 6.2 mi East 3.5 mph - N/A Rain Light Rain
1:20 AM 57.2 °F 53.6 °F 88% 30.09 in 6.2 mi Variable 2.3 mph - N/A   Mostly Cloudy
2:20 AM 57.2 °F 51.8 °F 82% 30.06 in 6.2 mi Calm Calm - N/A   Mostly Cloudy
3:20 AM 57.2 °F 51.8 °F 82% 30.04 in 6.2 mi SW 3.5 mph - N/A   Mostly Cloudy
4:20 AM 55.4 °F 51.8 °F 88% 30.06 in 6.2 mi South 4.6 mph - N/A   Mostly Cloudy
5:20 AM 55.4 °F 51.8 °F 88% 30.06 in 6.2 mi East 3.5 mph - N/A   Mostly Cloudy
6:20 AM 57.2 °F 51.8 °F 82% 30.06 in 3.7 mi East 3.5 mph - N/A   Mostly Cloudy
7:20 AM 59.0 °F 51.8 °F 77% 30.09 in 3.7 mi Variable 2.3 mph - N/A   Mostly Cloudy
8:20 AM 60.8 °F 51.8 °F 72% 30.09 in 3.1 mi NE 2.3 mph - N/A   Mostly Cloudy
9:20 AM 62.6 °F 51.8 °F 68% 30.09 in 3.1 mi SSW 4.6 mph - N/A   Mostly Cloudy
10:20 AM 68.0 °F 51.8 °F 56% 30.09 in 3.7 mi SW 2.3 mph - N/A   Mostly Cloudy
11:20 AM 66.2 °F 51.8 °F 60% 30.09 in 4.3 mi ENE 6.9 mph - N/A   Mostly Cloudy
12:20 PM 68.0 °F 51.8 °F 56% 30.06 in 5.0 mi NE 6.9 mph - N/A   Mostly Cloudy
1:20 PM 68.0 °F 50.0 °F 52% 30.04 in 6.2 mi NW 6.9 mph - N/A   Mostly Cloudy
1:59 PM 68.0 °F 50.0 °F 52% 30.04 in 6.2 mi North 11.5 mph - N/A Rain , Thunderstorm Light Rain Showers
2:20 PM 62.6 °F 53.6 °F 72% 30.01 in 5.0 mi North 12.7 mph - N/A Rain , Thunderstorm Light Thunderstorms and Rain
2:35 PM 57.2 °F 53.6 °F 88% 30.04 in 3.1 mi East 23.0 mph - N/A Rain , Thunderstorm Heavy Thunderstorms and Rain
2:50 PM 55.4 °F 53.6 °F 94% 30.06 in 1.9 mi NE 10.4 mph - N/A Rain , Thunderstorm Heavy Thunderstorms and Rain
3:20 PM 55.4 °F 55.4 °F 100% 30.06 in 2.5 mi NNW 9.2 mph - N/A Rain , Thunderstorm Thunderstorms and Rain
3:34 PM 57.2 °F 53.6 °F 88% 30.06 in 3.7 mi West 10.4 mph - N/A Rain , Thunderstorm Light Thunderstorms and Rain
4:00 PM 53.6 °F 51.8 °F 94% 30.09 in 1.9 mi WSW 9.2 mph - N/A Rain , Thunderstorm Thunderstorms and Rain
4:20 PM 53.6 °F 51.8 °F 94% 30.09 in 4.3 mi West 3.5 mph - N/A Rain , Thunderstorm Light Thunderstorms and Rain
4:35 PM 53.6 °F 51.8 °F 94% 30.06 in 5.0 mi NE 8.1 mph - N/A Rain Light Rain Showers
5:20 PM 55.4 °F 51.8 °F 88% 30.06 in 6.2 mi West 2.3 mph - N/A   Mostly Cloudy
6:20 PM 55.4 °F 51.8 °F 88% 30.06 in 6.2 mi NNW 9.2 mph - N/A   Mostly Cloudy
6:45 PM 55.4 °F 51.8 °F 88% 30.06 in 6.2 mi NNW 9.2 mph - N/A   Mostly Cloudy
6:50 PM 55.4 °F 51.8 °F 88% 30.06 in 6.2 mi West 2.3 mph - N/A   Mostly Cloudy
7:20 PM 55.4 °F 51.8 °F 88% 30.09 in 6.2 mi NNW 4.6 mph - N/A   Mostly Cloudy
8:20 PM 53.6 °F 51.8 °F 94% 30.09 in 6.2 mi ENE 4.6 mph - N/A   Partly Cloudy
9:20 PM 51.8 °F 50.0 °F 94% 30.06 in - ENE 6.9 mph - N/A   Clear
10:20 PM 51.8 °F 50.0 °F 94% 30.09 in - SSE 5.8 mph - N/A   Clear
11:20 PM 51.8 °F 50.0 °F 94% 30.09 in 3.7 mi Calm Calm - N/A   Unknown